When you browse on this site, cookies collect data to enhance your experience and personalize the content and advertising you see.
Visit our Privacy Policy to learn more. By continuing to use the site, you agree to this use of cookies and data.
  • en France
  • Liste des pays
  • À 7 jours
  • Température de l'eau
  • Carte satellitaire
  • Carte météo
  • Widgets météo
  • user-avatar
    Se connecter

    Météo par heure à Ali Bayramli

    Ce jour, 19 Juin, Mercredi

    Heure Température Précipitation Vent Pression Humidité
    00:00 +29°C° 0 mm 3 m/s 754 mmHg 39%
    01:00 +28°C° 0 mm 3 m/s 754 mmHg 43%
    02:00 +27°C° 0 mm 3 m/s 754 mmHg 47%
    03:00 +26°C° 0 mm 3 m/s 754 mmHg 52%
    04:00 +27°C° 0 mm 3 m/s 754 mmHg 51%
    05:00 +27°C° 0 mm 3 m/s 754 mmHg 50%
    06:00 +28°C° 0 mm 3 m/s 754 mmHg 50%
    07:00 +30°C° 0 mm 3 m/s 754 mmHg 42%
    08:00 +33°C° 0 mm 3 m/s 754 mmHg 33%
    09:00 +35°C° 0 mm 3 m/s 754 mmHg 25%
    10:00 +37°C° 0 mm 4 m/s 754 mmHg 22%
    11:00 +39°C° 0 mm 5 m/s 754 mmHg 19%
    12:00 +40°C° 0 mm 6 m/s 754 mmHg 17%
    13:00 +40°C° 0 mm 7 m/s 754 mmHg 17%
    14:00 +40°C° 0 mm 7 m/s 753 mmHg 17%
    15:00 +40°C° 0 mm 8 m/s 753 mmHg 17%
    16:00 +39°C° 0 mm 8 m/s 753 mmHg 18%
    17:00 +38°C° 0 mm 7 m/s 753 mmHg 19%
    18:00 +36°C° 0 mm 7 m/s 753 mmHg 19%
    19:00 +35°C° 0 mm 6 m/s 753 mmHg 21%
    20:00 +33°C° 0 mm 6 m/s 754 mmHg 23%
    21:00 +32°C° 0 mm 5 m/s 754 mmHg 25%
    22:00 +30°C° 0 mm 5 m/s 754 mmHg 28%
    23:00 +29°C° 0 mm 4 m/s 754 mmHg 31%

    Demain, 20 Juin, Jeudi

    Heure Température Précipitation Vent Pression Humidité
    00:00 +28°C° 0 mm 4 m/s 754 mmHg 34%
    01:00 +28°C° 0 mm 3 m/s 754 mmHg 36%
    02:00 +27°C° 0 mm 2 m/s 754 mmHg 39%
    03:00 +26°C° 0 mm 1 m/s 754 mmHg 41%
    04:00 +27°C° 0 mm 1 m/s 754 mmHg 40%
    05:00 +27°C° 0 mm 2 m/s 754 mmHg 39%
    06:00 +28°C° 0 mm 2 m/s 754 mmHg 38%
    07:00 +30°C° 0 mm 2 m/s 754 mmHg 33%
    08:00 +32°C° 0 mm 2 m/s 754 mmHg 28%
    09:00 +35°C° 0 mm 2 m/s 754 mmHg 23%
    10:00 +36°C° 0 mm 2 m/s 754 mmHg 21%
    11:00 +37°C° 0 mm 2 m/s 753 mmHg 18%
    12:00 +39°C° 0 mm 1 m/s 753 mmHg 16%
    13:00 +39°C° 0 mm 3 m/s 753 mmHg 16%
    14:00 +40°C° 0 mm 5 m/s 753 mmHg 16%
    15:00 +40°C° 0 mm 7 m/s 752 mmHg 16%
    16:00 +39°C° 0 mm 7 m/s 752 mmHg 17%
    17:00 +38°C° 0 mm 7 m/s 752 mmHg 18%
    18:00 +36°C° 0 mm 7 m/s 753 mmHg 20%
    19:00 +34°C° 0 mm 7 m/s 753 mmHg 23%
    20:00 +33°C° 0 mm 6 m/s 753 mmHg 26%
    21:00 +32°C° 0 mm 6 m/s 754 mmHg 29%
    22:00 +30°C° 0 mm 5 m/s 754 mmHg 30%
    23:00 +30°C° 0 mm 5 m/s 754 mmHg 31%

    Après-demain, 21 Juin, Vendredi

    Heure Température Précipitation Vent Pression Humidité
    00:00 +29°C° 0 mm 5 m/s 754 mmHg 31%
    01:00 +29°C° 0 mm 4 m/s 753 mmHg 33%
    02:00 +28°C° 0 mm 3 m/s 753 mmHg 34%
    03:00 +27°C° 0 mm 3 m/s 753 mmHg 35%
    04:00 +27°C° 0.1 mm 3 m/s 753 mmHg 39%
    05:00 +27°C° 0.1 mm 3 m/s 754 mmHg 44%
    06:00 +27°C° 0.1 mm 3 m/s 754 mmHg 48%
    07:00 +28°C° 0.2 mm 3 m/s 754 mmHg 44%
    08:00 +30°C° 0.2 mm 2 m/s 754 mmHg 39%
    09:00 +31°C° 0.2 mm 2 m/s 754 mmHg 35%
    10:00 +32°C° 0.4 mm 2 m/s 754 mmHg 34%
    11:00 +32°C° 0.4 mm 2 m/s 754 mmHg 33%
    12:00 +33°C° 0.4 mm 1 m/s 754 mmHg 32%
    13:00 +35°C° 0.4 mm 3 m/s 754 mmHg 30%
    14:00 +36°C° 0.4 mm 5 m/s 754 mmHg 27%
    15:00 +38°C° 0.4 mm 7 m/s 754 mmHg 25%
    16:00 +38°C° 0 mm 7 m/s 754 mmHg 24%
    17:00 +38°C° 0 mm 8 m/s 754 mmHg 23%
    18:00 +37°C° 0 mm 9 m/s 754 mmHg 23%
    19:00 +35°C° 0 mm 8 m/s 754 mmHg 24%
    20:00 +34°C° 0 mm 7 m/s 754 mmHg 26%
    21:00 +33°C° 0 mm 6 m/s 755 mmHg 28%
    22:00 +32°C° 0.1 mm 5 m/s 755 mmHg 33%
    23:00 +30°C° 0.1 mm 4 m/s 755 mmHg 38%

    22 Juin, Samedi

    Heure Température Précipitation Vent Pression Humidité
    00:00 +29°C° 0.1 mm 3 m/s 755 mmHg 43%
    01:00 +28°C° 0.1 mm 3 m/s 754 mmHg 45%
    02:00 +28°C° 0.1 mm 3 m/s 754 mmHg 47%
    03:00 +27°C° 0.1 mm 3 m/s 754 mmHg 48%
    04:00 +27°C° 0.1 mm 1 m/s 754 mmHg 50%
    05:00 +28°C° 0.1 mm 1 m/s 755 mmHg 48%
    06:00 +28°C° 0.1 mm 1 m/s 755 mmHg 46%
    07:00 +30°C° 0.1 mm 1 m/s 755 mmHg 41%
    08:00 +31°C° 0.1 mm 1 m/s 755 mmHg 36%
    09:00 +33°C° 0.1 mm 1 m/s 755 mmHg 31%
    10:00 +35°C° 0 mm 2 m/s 755 mmHg 29%
    11:00 +36°C° 0 mm 3 m/s 755 mmHg 26%
    12:00 +38°C° 0 mm 3 m/s 755 mmHg 23%
    13:00 +38°C° 0 mm 4 m/s 755 mmHg 23%
    14:00 +40°C° 0 mm 5 m/s 755 mmHg 23%
    15:00 +40°C° 0 mm 6 m/s 754 mmHg 22%
    16:00 +39°C° 0 mm 7 m/s 754 mmHg 24%
    17:00 +38°C° 0 mm 7 m/s 754 mmHg 26%
    18:00 +36°C° 0 mm 7 m/s 755 mmHg 28%
    19:00 +35°C° 0 mm 6 m/s 755 mmHg 33%
    20:00 +33°C° 0 mm 6 m/s 755 mmHg 38%
    21:00 +32°C° 0 mm 5 m/s 756 mmHg 44%
    22:00 +30°C° 0 mm 4 m/s 756 mmHg 48%
    23:00 +29°C° 0 mm 3 m/s 755 mmHg 51%

    23 Juin, Dimanche

    Heure Température Précipitation Vent Pression Humidité
    00:00 +29°C° 0 mm 2 m/s 755 mmHg 55%
    01:00 +28°C° 0 mm 2 m/s 755 mmHg 57%
    02:00 +28°C° 0 mm 2 m/s 755 mmHg 58%
    03:00 +27°C° 0 mm 1 m/s 755 mmHg 60%
    04:00 +28°C° 0 mm 2 m/s 755 mmHg 57%
    05:00 +28°C° 0 mm 2 m/s 755 mmHg 54%
    06:00 +29°C° 0 mm 2 m/s 755 mmHg 51%
    07:00 +31°C° 0 mm 2 m/s 755 mmHg 45%
    08:00 +34°C° 0 mm 2 m/s 756 mmHg 39%
    09:00 +34°C° 0 mm 1 m/s 756 mmHg 33%
    10:00 +37°C° 0 mm 2 m/s 756 mmHg 29%
    11:00 +38°C° 0 mm 2 m/s 755 mmHg 26%
    12:00 +39°C° 0 mm 2 m/s 755 mmHg 23%
    13:00 +39°C° 0 mm 3 m/s 755 mmHg 22%
    14:00 +41°C° 0 mm 5 m/s 755 mmHg 22%
    15:00 +41°C° 0 mm 6 m/s 754 mmHg 21%
    16:00 +40°C° 0 mm 7 m/s 754 mmHg 23%
    17:00 +39°C° 0 mm 7 m/s 754 mmHg 24%
    18:00 +38°C° 0 mm 8 m/s 755 mmHg 25%
    19:00 +36°C° 0 mm 7 m/s 755 mmHg 29%
    20:00 +35°C° 0 mm 6 m/s 755 mmHg 33%
    21:00 +33°C° 0 mm 6 m/s 755 mmHg 37%
    22:00 +33°C° 0 mm 5 m/s 755 mmHg 38%
    23:00 +32°C° 0 mm 4 m/s 755 mmHg 39%

    24 Juin, Lundi

    Heure Température Précipitation Vent Pression Humidité
    00:00 +31°C° 0 mm 3 m/s 755 mmHg 39%
    01:00 +30°C° 0 mm 3 m/s 755 mmHg 42%
    02:00 +29°C° 0 mm 2 m/s 755 mmHg 44%
    03:00 +29°C° 0 mm 2 m/s 755 mmHg 46%
    04:00 +29°C° 0 mm 2 m/s 755 mmHg 45%
    05:00 +29°C° 0 mm 2 m/s 755 mmHg 45%
    06:00 +30°C° 0 mm 2 m/s 755 mmHg 45%
    07:00 +31°C° 0 mm 2 m/s 755 mmHg 40%
    08:00 +34°C° 0 mm 2 m/s 755 mmHg 34%
    09:00 +35°C° 0 mm 1 m/s 755 mmHg 29%
    10:00 +37°C° 0 mm 2 m/s 755 mmHg 26%
    11:00 +39°C° 0 mm 2 m/s 754 mmHg 24%
    12:00 +40°C° 0 mm 2 m/s 754 mmHg 21%
    13:00 +42°C° 0 mm 4 m/s 754 mmHg 20%
    14:00 +42°C° 0 mm 6 m/s 754 mmHg 19%
    15:00 +43°C° 0 mm 8 m/s 754 mmHg 19%
    16:00 +41°C° 0 mm 8 m/s 754 mmHg 21%
    17:00 +40°C° 0 mm 9 m/s 754 mmHg 23%
    18:00 +39°C° 0 mm 9 m/s 754 mmHg 25%
    19:00 +37°C° 0 mm 9 m/s 754 mmHg 29%
    20:00 +35°C° 0 mm 9 m/s 754 mmHg 33%
    21:00 +33°C° 0 mm 8 m/s 755 mmHg 36%
    22:00 +33°C° 0 mm 8 m/s 755 mmHg 36%
    23:00 +33°C° 0 mm 8 m/s 755 mmHg 35%
    Voir plus